Location: Olmeneta
(45.2333°N, 10.0167°E)
Time: 17:25:58
(UTC+00:00)

Cosmos 1461 - Pass Details

Date: 03 March 2021
Orbit: 504 x 659 km, 65.0° (Epoch: 11 April)

Event Time Altitude Azimuth Distance (km) Brightness Sun altitude
Rises 17:28:27 0° 217° (SW) 2,953 7.2 -4.1°
Reaches altitude 10° 17:30:44 10° 219° (SW) 2,057 6.4 -4.5°
Maximum altitude 17:35:27 79° 306° (NW) 678 3.4 -5.3°
Drops below altitude 10° 17:40:11 10° 33° (NNE) 2,078 5.4 -6.1°
Sets 17:42:30 0° 35° (NE) 2,985 6.2 -6.5°
